Location: Banksville Park
(38.5557°N, 75.1182°W)
Time: 12:37:45
(UTC+00:00)

Cosmos 2322 Rocket - Pass Details

Date: 19 September 2020
Orbit: 831 x 852 km, 71.0° (Epoch: 22 October)

Event Time Altitude Azimuth Distance (km) Brightness Sun altitude
Exits shadow 09:22:22 - 197° (SSW) 2,831 4.6 -16.9°
Reaches altitude 10° 09:23:22 10° 196° (SSW) 2,451 4.3 -16.8°
Maximum altitude 09:28:59 79° 111° (ESE) 864 2.3 -15.7°
Drops below altitude 10° 09:34:41 10° 25° (NNE) 2,480 5.2 -14.6°
Sets 09:37:09 0° 24° (NNE) 3,421 5.9 -14.1°
